Regional Weather Roundup
Issued by NWS San Angelo, TX

Home | Current Version | Previous Version | Text Only | Print | Product List | Glossary On
Versions: 1 2 3 4 5 6 7 8 9 10 11 12 13 14 15 16 17 18 19 20 21 22 23 24 25 26 27 28 29 30 31 32 33 34 35 36 37 38 39 40 41 42 43 44 45 46 47 48 49 50
000
ASUS44 KSJT 301310
RWRSJT
WEST CENTRAL TEXAS REGIONAL WEATHER ROUNDUP
NATIONAL WEATHER SERVICE SAN ANGELO TX
800 AM CDT MON MAR 30 2015

NOTE: "FAIR" INDICATES FEW OR NO CLOUDS BELOW 12,000 FEET WITH NO
SIGNIFICANT WEATHER AND/OR OBSTRUCTIONS TO VISIBILITY.

TXZ049-054-064>066-071>073-076>078-098-099-113-114-127-128-139-140-
154-155-168>170-301400
...LOCATIONS ACROSS WEST CENTRAL TEXAS...

CITY           SKY/WX    TMP DP  RH WIND       PRES   REMARKS
SAN ANGELO     MOCLDY    57  46  66 N5        30.16R
ABILENE        PTCLDY    51  44  77 NW3       30.17R
DYESS AFB      PTCLDY    51  44  77 NW8       30.17R
JUNCTION       MOCLDY    54  52  93 CALM      30.16R
SWEETWATER     PTCLDY    50  42  72 N6        30.22R
BROWNWOOD      PTCLDY    54  48  82 W5        30.15R
COLEMAN        MOSUNNY   55  47  75 NW3       30.16R
SONORA         CLOUDY    55  52  88 N5        30.20R
OZONA          FAIR      55  46  71 N5        30.19R
BRADY          CLEAR     55  50  82 CALM      30.15R
$$

TEXAS PANHANDLE/OKLAHOMA PANHANDLE

CITY           SKY/WX    TMP DP  RH WIND       PRES   REMARKS
AMARILLO       MOCLDY    46  30  53 SW8       30.26R
BORGER         MOCLDY    48  29  47 SW7       30.23R
CANADIAN       CLEAR     35  32  89 CALM      30.22R
DALHART        MOCLDY    45  28  51 SW10      30.24S WCI  40
DUMAS          PTSUNNY   44  27  52 SW10      30.24S WCI  38
GUYMON         NOT AVBL
HEREFORD       PTSUNNY   38  32  78 NW7       30.27R WCI  33
PAMPA          PTSUNNY   49  32  51 S8        30.23R
PERRYTON       CLEAR     38  31  73 SW7       30.21R WCI  33
$$

SOUTHERN PANHANDLE/SOUTH PLAINS/ROLLING PLAINS

CITY           SKY/WX    TMP DP  RH WIND       PRES   REMARKS
LUBBOCK        MOCLDY    42  29  59 W3        30.25R
SNYDER         CLEAR     49  39  67 N8        30.21R
CHILDRESS      CLEAR     44  29  55 NW5       30.23R
SEMINOLE       CLOUDY    51  37  57 CALM      30.25R
$$

PERMIAN BASIN

CITY           SKY/WX    TMP DP  RH WIND       PRES   REMARKS
MIDLAND        CLOUDY    51  42  71 N8        30.21R
ODESSA         MOCLDY    51  40  65 NE9       30.22R
WINK           MOCLDY    50  38  63 N7        30.20R
$$

FAR WEST/SOUTHWEST MOUNTAINS/TRANS PECOS

CITY           SKY/WX    TMP DP  RH WIND       PRES   REMARKS
ALPINE         MOSUNNY   42  38  84 SW3       30.30R
DRYDEN           N/A     64  59  83 NE6       30.14R
EL PASO        CLOUDY    63  33  32 SE8       30.18R
FORT STOCKTON  PTCLDY    51  45  79 SW5       30.20R
GUADALUPE PASS MOCLDY    51  32  48 NE26      30.26S
MARFA          CLEAR     45  39  81 N5        30.25R
PECOS          SUNNY     53  39  61 N6        30.20R
$$

DALLAS/FORT WORTH METROPLEX

CITY           SKY/WX    TMP DP  RH WIND       PRES   REMARKS
DFW AIRPORT    MOCLDY    60  56  86 SE3       30.14R
FTW MEACHAM    MOCLDY    60  55  83 N5        30.14R
DAL-EXECUTIVE  CLOUDY    62  59  90 E6        30.14R
GRAND PRAIRIE  CLOUDY    63  59  88 NE3       30.16R
ADDISON        MOCLDY    64  59  82 SE6       30.14R
MESQUITE       CLOUDY    64  61  88 E3        30.16R
LANCASTER      CLOUDY    60  58  92 CALM      30.16R
$$

NORTH CENTRAL TEXAS

CITY           SKY/WX    TMP DP  RH WIND       PRES   REMARKS
SHRMAN/DENISON SUNNY     57  46  67 NE3       30.19R
GAINESVILLE    CLEAR     53  44  71 NE6       30.18S
BRIDGEPORT     MOSUNNY   56  47  72 CALM      30.17R
DENTON         CLEAR     56  48  74 NE7       30.15R
WAXAHACHIE     MOSUNNY   61  61 100 SE3       30.15R
GRANBURY         N/A     56  54  92 CALM      30.15R
$$

WESTERN NORTH TEXAS

CITY           SKY/WX    TMP DP  RH WIND       PRES   REMARKS
WICHITA FALLS  PTCLDY    48  42  80 NE6       30.16S
VERNON         SUNNY     44  35  68 NE6       30.21R
BRECKENRIDGE   CLOUDY    55  46  69 CALM      30.15R
COMANCHE       MOCLDY    56  51  82 NW6       30.14R
$$

CENTRAL AND SOUTH CENTRAL TEXAS

CITY           SKY/WX    TMP DP  RH WIND       PRES   REMARKS
AUSTIN/BERGSTM CLOUDY    64  63  96 CALM      30.16R
WACO           CLEAR     62  60  93 S6        30.13R
HILLSBORO      MOSUNNY   62  59  91 SE5       30.14R
TEMPLE         CLOUDY    64  57  77 S9        30.13R
KILLEEN-GRAY   CLEAR     62  61  94 S6        30.13R
FORT HOOD      CLEAR     64  61  90 S8        30.13R
GEORGETOWN     CLOUDY    66  61  82 SE10      30.14R
LAGO VISTA     CLOUDY    65  61  85 S5        30.16R
SAN MARCOS     CLOUDY    63  61  94 E5        30.17R
NEW BRAUNFELS  CLOUDY    66  63  90 CALM      30.14R
RANDOLPH AFB   CLOUDY    65  65  99 E2        30.15R
SAN ANTONIO    CLOUDY    67  62  84 S6        30.15R
STINSON        CLOUDY    66  63  90 CALM      30.13R
PLEASANTON     NOT AVBL
LA GRANGE      CLOUDY    67  66  96 SE3       30.15R
GIDDINGS       CLOUDY    64  63  97 CALM      30.20R
$$

EAST TEXAS

CITY           SKY/WX    TMP DP  RH WIND       PRES   REMARKS
PARIS          NOT AVBL
CLARKSVILLE    NOT AVBL
TYLER          CLOUDY    65  60  84 SE6       30.17R
LONGVIEW       CLOUDY    64  61  90 CALM      30.18R
PALESTINE      CLOUDY    65  63  91 SE5       30.18R
NACOGDOCHES    CLEAR     61  57  88 SE3       30.20R
$$

TEXAS HILL COUNTRY AND EDWARDS PLATEAU

CITY           SKY/WX    TMP DP  RH WIND       PRES   REMARKS
LLANO          CLOUDY    63  61  94 CALM      30.18R
HORSESHOE BAY  CLOUDY    65  62  88 CALM      30.15R
KERRVILLE      CLOUDY    61  60  94 S7        30.16R
FREDERICKSBRG  CLOUDY    62  60  94 SW3       30.17R
ROCKSPRINGS    NOT AVBL
HONDO          CLOUDY    64  62  93 MISG      30.16R
UVALDE         CLOUDY    63  61  94 E6        30.14R
DEL RIO        CLOUDY    66  61  84 E9        30.10R
$$

SOUTHEAST TEXAS

CITY           SKY/WX    TMP DP  RH WIND       PRES   REMARKS
COLLEGE STN    CLOUDY    63  62  97 SE3       30.18R
CALDWELL       CLOUDY    61  61 100 CALM      30.20R FOG
CROCKETT       SUNNY     61  61 100 CALM      30.21R
BRENHAM        CLOUDY    65  64  97 SE3       30.18R FOG
HUNTSVILLE     PTCLDY    64  62  93 S7        30.18R
CONROE         MOCLDY    62  61  96 CALM      30.20R FOG
HOUSTON BUSH   PTCLDY    63  62  97 SE3       30.19R
HOUSTON HOBBY  PTCLDY    62  61  96 CALM      30.19R
PERLAND        MOCLDY    62  61  96 CALM      30.21R
WHARTON        CLOUDY    63  63  99 E5        30.18R FOG
$$

THE UPPER TEXAS COAST

CITY           SKY/WX    TMP DP  RH WIND       PRES   REMARKS
ORANGE         FOG       59  57  93 CALM      30.23R VSB 1/4
PORT ARTHUR    MOSUNNY   62  61  96 CALM      30.21R
GALVESTON      PTCLDY    66  66 100 CALM      30.20R
ANGLETON       FOG       59  59 100 CALM      30.19R VSB 1/2
BAY CITY       FOG       60  60 100 E5        30.18R VSB 1/4
$$

TEXAS COASTAL BEND, RIO GRANDE PLAINS DEEP SOUTH TEXAS

CITY           SKY/WX    TMP DP  RH WIND       PRES   REMARKS
VICTORIA       CLOUDY    66  65  96 SE3       30.16R FOG
BEEVILLE       PTSUNNY   67  67 100 SE7       30.13S
ROCKPORT       CLOUDY    69  66  90 SE7       30.14R
PORT ARANSAS   CLOUDY    67  66  96 SE5       30.14R FOG
PORT LAVACA    PTSUNNY   66  65  98 SE5       30.16R FOG
CORPUS CHRISTI CLOUDY    68  66  93 S9        30.13R
KINGSVILLE NAS CLOUDY    67  66  97 E3        30.13R FOG
COTULLA        CLOUDY    67  62  84 SE6       30.11R
LAREDO         CLOUDY    65  64  96 E8        30.11R
BROWNSVILLE    CLOUDY    70  68  93 SE9       30.12R
PORT ISABEL    PTCLDY    69  66  90 SE10      30.11R FOG
HEBBRONVILLE   NOT AVBL
MCALLEN        MOCLDY    70  66  87 SE10      30.11R
WESLACO        CLOUDY    70  66  88 SE7       30.10R
FALFURRIAS     CLOUDY    68  65  92 E3        30.11R
EDINBURG       CLOUDY    71  66  84 S9        30.11R
$$


USA.gov is the U.S. government's official web portal to all federal, state and local government web resources and services.